Weather History for KSPW - December, 2013

Change the Weather History Date:

Thursday, December 12, 2013

  Actual Average Record
Temperature  
Mean Temperature 16 °F -  
Max Temperature 26 °F 29 °F 52 °F (1998)
Min Temperature 7 °F 10 °F -16 °F (1989)
Degree Days  
Heating Degree Days 48    
Moisture  
Dew Point 9 °F    
Average Humidity 77    
Maximum Humidity 92    
Minimum Humidity 70    
Precipitation  
Precipitation 0.00 in - - ()
Sea Level Pressure  
Sea Level Pressure 30.28 in    
Wind  
Wind Speed 11 mph (SW)    
Max Wind Speed 21 mph    
Max Gust Speed 30 mph    
Visibility 10 miles    
Events      
Averages and records for this station are not official NWS values.
T = Trace of Precipitation, MM = Missing Value Source: NWS Daily Summary

Daily Weather History Graph

Daily Weather History Graph

Search for Another Location

Airport or City:

Trip Planner

Search our weather history database for the weather conditions in past years. The results will help you decide how hot, cold, wet, or windy it might be!

Date:

Astronomy

Dec. 12, 2013 Rise Set
Actual Time 7:43 AM CST 4:45 PM CST
Civil Twilight 7:11 AM CST 5:18 PM CST
Nautical Twilight 6:35 AM CST 5:54 PM CST
Astronomical Twilight 6:00 AM CST 6:28 PM CST
Moon 1:58 PM CST (12/12) 3:01 AM CST (12/12)
Length of Visible Light 10h 06m
Length of Day
9h 02m
Waxing Gibbous, 80% of the Moon is Illuminated
Dec 12
Waxing Gibbous
Dec 17
Full
Dec 25
Last Quarter
Jan 1
New
Jan 7
First Quarter

Hourly Weather History & Observations

Time (CST) Temp. Windchill Dew Point Humidity Pressure Visibility Wind Dir Wind Speed Gust Speed Precip Events Conditions
12:53 AM 9.0 °F -9.5 °F 1.9 °F 73% 30.39 in 10.0 mi SW 18.4 mph - N/A   Clear
1:53 AM 10.9 °F -7.9 °F 3.0 °F 70% 30.36 in 10.0 mi SW 20.7 mph 29.9 mph N/A   Clear
2:53 AM 10.9 °F -4.1 °F 3.0 °F 70% 30.36 in 10.0 mi SW 12.7 mph - N/A   Clear
3:53 AM 12.0 °F -5.1 °F 3.9 °F 70% 30.35 in 10.0 mi WSW 17.3 mph - N/A   Clear
4:53 AM 10.0 °F -1.9 °F 3.0 °F 73% 30.35 in 10.0 mi WSW 8.1 mph - N/A   Clear
5:53 AM 9.0 °F -5.1 °F 3.0 °F 77% 30.36 in 10.0 mi WSW 10.4 mph - N/A   Clear
6:53 AM 10.9 °F -0.8 °F 5.0 °F 77% 30.36 in 10.0 mi WSW 8.1 mph - N/A   Clear
7:53 AM 12.9 °F 3.8 °F 7.0 °F 77% 30.35 in 10.0 mi West 5.8 mph - N/A   Clear
8:53 AM 16.0 °F 6.3 °F 10.0 °F 77% 30.36 in 10.0 mi WSW 6.9 mph - N/A   Partly Cloudy
9:53 AM 19.0 °F 8.2 °F 12.0 °F 74% 30.37 in 10.0 mi West 9.2 mph - N/A   Overcast
10:53 AM 21.0 °F 10.6 °F 12.9 °F 71% 30.35 in 10.0 mi West 9.2 mph - N/A   Overcast
11:53 AM 21.9 °F 15.7 °F 14.0 °F 72% 30.34 in 10.0 mi WSW 4.6 mph - N/A   Overcast
12:53 PM 24.1 °F 18.2 °F 16.0 °F 71% 30.30 in 10.0 mi SSW 4.6 mph - N/A   Mostly Cloudy
1:53 PM 23.0 °F 14.7 °F 16.0 °F 74% 30.29 in 10.0 mi SSW 6.9 mph - N/A   Clear
2:53 PM 24.1 °F 16.0 °F 16.0 °F 71% 30.25 in 10.0 mi SSW 6.9 mph - N/A   Overcast
3:53 PM 26.1 °F 19.4 °F 18.0 °F 71% 30.24 in 10.0 mi South 5.8 mph - N/A   Overcast
4:53 PM 23.0 °F 13.9 °F 17.1 °F 78% 30.23 in 10.0 mi SSW 8.1 mph - N/A   Mostly Cloudy
5:53 PM 19.0 °F - 12.9 °F 77% 30.22 in 10.0 mi Calm Calm - N/A   Mostly Cloudy
6:53 PM 17.1 °F 10.0 °F 12.9 °F 84% 30.20 in 10.0 mi South 4.6 mph - N/A   Clear
7:53 PM 12.9 °F 6.9 °F 10.9 °F 92% 30.19 in 10.0 mi ESE 3.5 mph - N/A   Clear
8:53 PM 12.0 °F - 9.0 °F 88% 30.17 in 9.0 mi Calm Calm - N/A   Clear
9:53 PM 12.9 °F 6.9 °F 9.0 °F 84% 30.15 in 8.0 mi South 3.5 mph - N/A   Clear
10:53 PM 7.0 °F - 3.9 °F 87% 30.14 in 6.0 mi Calm Calm - N/A   Clear
11:53 PM 7.0 °F -4.5 °F 3.0 °F 84% 30.12 in 7.0 mi East 6.9 mph - N/A   Clear